Dewpoint
49 49 49 50 50 52 54 53 55 54 56 55 55 55 55 55 55 53 52 52 50 47 45 43 42 41 41
48 48 48 48 47 49 49 50 53 53 54 55 55 55 55 55 54 52 51 50 49 46 44 42 41 40 40
48 49 48 46 46 45 46 48 48 48 52 52 54 55 54 54 53 51 50 49 47 45 43 40 40 40 39
46 48 48 46 45 44 43 45 45 45 46 47 50 52 53 53 52 50 48 47 46 43 41 41 41 40 39
46 46 46 43 42 44 43 44 44 46 45 45 45 47 49 51 49 47 47 45 44 43 43 43 42 41 39
46 46 47 45 44 44 44 44 42 46 45 44 46 46 48 49 49 47 46 45 44 44 44 44 43 41 39
47 47 47 45 45 44 44 44 43 44 43 42 44 44 47 46 48 46 45 44 45 45 44 43 42 41 39
48 47 47 47 46 45 45 45 42 41 43 39 41 42 40 41 46 46 45 45 46 45 44 43 41 39 37
46 46 47 46 47 45 43 41 39 39 39 39 36 35 35 35 36 39 46 46 45 44 43 41 40 37 34
46 46 45 45 45 45 44 39 37 36 37 37 33 33 33 31 32 33 35 43 43 42 41 40 37 31 28
44 44 44 44 43 42 42 40 37 37 37 35 33 33 32 28 30 31 33 34 36 38 38 36 33 31 25
39 38 37 37 35 35 36 35 36 37 38 35 33 34 32 28 27 29 31 31 31 29 28 29 31 30 29
34 33 33 33 32 32 32 31 31 31 33 33 34 33 33 32 28 27 26 27 25 24 22 21 20 21 19
33 32 32 32 31 32 32 32 31 29 28 31 31 32 31 30 31 28 27 24 24 22 22 21 20 19 18
32 31 31 31 31 31 31 31 30 28 27 27 28 29 29 30 29 29 27 25 24 24 22 22 23 23 21
32 31 31 31 30 30 31 31 30 28 26 26 26 26 26 24 25 26 25 25 25 24 24 23 23 26 27
33 32 32 31 32 30 30 30 28 28 27 27 26 28 25 24 24 22 23 24 24 23 24 25 25 24 22
Lifted_Index
7 7 8 8 8 8 7 7 6 6 5 5 5 5 5 5 5 6 6 7 8 8 9 9 10 10 11
7 7 8 8 8 8 8 8 7 7 7 6 5 5 5 5 5 6 6 7 8 8 9 9 10 10 10
6 6 7 7 8 8 8 8 8 8 8 7 6 5 5 5 5 6 7 7 8 8 9 9 10 10 10
5 5 6 7 7 8 8 8 9 9 9 8 8 6 6 6 6 7 7 8 8 9 9 9 10 10 11
4 4 5 6 6 7 8 8 8 8 8 8 8 8 7 7 7 7 8 8 9 9 10 10 11 11 11
3 4 4 5 6 7 8 8 8 8 8 8 8 8 8 8 8 8 9 9 9 10 10 11 11 11 12
4 4 5 6 7 7 8 8 8 8 8 8 8 8 8 8 8 9 9 9 10 10 11 11 11 11 12
5 6 6 7 7 8 8 8 8 8 8 8 7 7 7 8 8 8 9 10 10 11 11 11 11 11 11
7 7 7 7 8 8 8 8 7 7 7 7 7 7 7 7 7 8 9 10 11 11 11 11 11 11 11
7 7 7 7 7 7 7 7 7 7 7 7 7 7 6 7 7 8 9 10 10 11 11 11 11 12 12
7 7 7 7 7 7 7 7 7 7 7 7 7 7 7 6 6 7 8 9 9 10 11 11 12 14 14
7 7 7 7 6 6 6 6 7 7 7 7 7 7 6 6 6 6 7 8 9 10 10 12 14 16 16
6 6 6 6 6 6 6 6 6 7 7 8 8 7 7 6 6 6 7 8 9 10 11 13 15 16 17
6 6 6 6 6 6 6 6 6 6 7 8 8 8 7 7 7 7 7 8 10 11 13 14 16 17 17
6 6 6 6 6 6 6 6 6 6 7 8 8 8 8 8 8 8 8 9 11 13 14 14 15 17 17
7 7 7 7 7 7 7 7 7 7 7 7 7 8 8 8 9 9 9 10 12 14 14 14 14 16 17
8 8 8 7 7 7 8 7 7 8 7 7 7 7 7 7 9 10 10 10 12 13 14 13 13 15 17